When you browse on this site, cookies collect data to enhance your experience and personalize the content and advertising you see.
Visit our Privacy Policy to learn more. By continuing to use the site, you agree to this use of cookies and data.

Tiempo cada hora Ohtyrka

Hoy, 3 Julio, Viernes

Tiempo Temperatura Precipitaciones Viento Presión Humedad
00:00 +21°C° 0 mm 1 mps 750 mmHg 74%
01:00 +21°C° 0 mm 1 mps 750 mmHg 75%
02:00 +21°C° 0 mm 1 mps 750 mmHg 71%
03:00 +21°C° 0 mm 1 mps 750 mmHg 73%
04:00 +21°C° 0 mm 1 mps 750 mmHg 75%
05:00 +21°C° 0 mm 1 mps 750 mmHg 77%
06:00 +23°C° 0 mm 1 mps 750 mmHg 73%
07:00 +24°C° 0 mm 1 mps 751 mmHg 68%
08:00 +26°C° 0 mm 2 mps 751 mmHg 62%
09:00 +27°C° 0 mm 2 mps 751 mmHg 59%
10:00 +28°C° 0 mm 2 mps 751 mmHg 55%
11:00 +30°C° 0 mm 3 mps 751 mmHg 52%
12:00 +30°C° 0 mm 2 mps 751 mmHg 51%
13:00 +30°C° 0 mm 2 mps 750 mmHg 50%
14:00 +31°C° 0 mm 2 mps 750 mmHg 47%
15:00 +31°C° 0 mm 2 mps 750 mmHg 50%
16:00 +31°C° 0 mm 1 mps 749 mmHg 54%
17:00 +31°C° 0 mm 1 mps 749 mmHg 58%
18:00 +29°C° 0 mm 1 mps 749 mmHg 61%
19:00 +27°C° 0 mm 2 mps 749 mmHg 65%
20:00 +26°C° 0 mm 2 mps 749 mmHg 68%
21:00 +25°C° 0 mm 2 mps 749 mmHg 72%
22:00 +24°C° 0 mm 2 mps 749 mmHg 77%
23:00 +23°C° 0 mm 2 mps 749 mmHg 81%

Mañana, 4 Julio, Sábado

Tiempo Temperatura Precipitaciones Viento Presión Humedad
00:00 +23°C° 0.5 mm 2 mps 749 mmHg 84%
01:00 +21°C° 0.5 mm 2 mps 749 mmHg 87%
02:00 +21°C° 0.5 mm 2 mps 750 mmHg 90%
03:00 +21°C° 0.2 mm 2 mps 749 mmHg 90%
04:00 +21°C° 0.2 mm 2 mps 749 mmHg 89%
05:00 +23°C° 0.2 mm 2 mps 749 mmHg 89%
06:00 +24°C° 0 mm 1 mps 749 mmHg 83%
07:00 +26°C° 0 mm 1 mps 750 mmHg 77%
08:00 +27°C° 0 mm 1 mps 750 mmHg 71%
09:00 +29°C° 0 mm 1 mps 750 mmHg 66%
10:00 +30°C° 0 mm 1 mps 750 mmHg 60%
11:00 +32°C° 0 mm 1 mps 750 mmHg 55%
12:00 +32°C° 0 mm 1 mps 750 mmHg 52%
13:00 +33°C° 0 mm 1 mps 750 mmHg 50%
14:00 +33°C° 0 mm 1 mps 749 mmHg 47%
15:00 +32°C° 0.3 mm 2 mps 749 mmHg 54%
16:00 +30°C° 0.3 mm 2 mps 749 mmHg 61%
17:00 +29°C° 0.3 mm 3 mps 749 mmHg 69%
18:00 +27°C° 0.9 mm 3 mps 749 mmHg 73%
19:00 +25°C° 0.9 mm 3 mps 749 mmHg 78%
20:00 +24°C° 0.9 mm 3 mps 749 mmHg 83%
21:00 +22°C° 0.2 mm 3 mps 749 mmHg 84%
22:00 +22°C° 0.2 mm 3 mps 749 mmHg 85%
23:00 +21°C° 0.2 mm 2 mps 749 mmHg 86%

Pasado mañana, 5 Julio, Domingo

Tiempo Temperatura Precipitaciones Viento Presión Humedad
00:00 +21°C° 0 mm 2 mps 749 mmHg 87%
01:00 +21°C° 0 mm 2 mps 749 mmHg 88%
02:00 +21°C° 0 mm 2 mps 749 mmHg 89%
03:00 +21°C° 0 mm 2 mps 749 mmHg 90%
04:00 +21°C° 0 mm 2 mps 749 mmHg 90%
05:00 +21°C° 0 mm 2 mps 749 mmHg 90%
06:00 +24°C° 0 mm 2 mps 749 mmHg 85%
07:00 +25°C° 0 mm 2 mps 749 mmHg 81%
08:00 +26°C° 0 mm 2 mps 749 mmHg 76%
09:00 +28°C° 0 mm 2 mps 749 mmHg 72%
10:00 +29°C° 0 mm 2 mps 749 mmHg 67%
11:00 +30°C° 0 mm 2 mps 748 mmHg 63%
12:00 +30°C° 0.1 mm 2 mps 748 mmHg 60%
13:00 +31°C° 0.1 mm 2 mps 748 mmHg 57%
14:00 +31°C° 0.1 mm 1 mps 748 mmHg 54%
15:00 +30°C° 0.3 mm 2 mps 748 mmHg 60%
16:00 +29°C° 0.3 mm 3 mps 748 mmHg 67%
17:00 +28°C° 0.3 mm 3 mps 748 mmHg 74%
18:00 +27°C° 0.1 mm 3 mps 748 mmHg 77%
19:00 +26°C° 0.1 mm 3 mps 748 mmHg 80%
20:00 +25°C° 0.1 mm 3 mps 748 mmHg 84%
21:00 +24°C° 0.3 mm 3 mps 748 mmHg 85%
22:00 +22°C° 0.3 mm 3 mps 748 mmHg 86%
23:00 +22°C° 0.3 mm 3 mps 748 mmHg 87%

6 Julio, Lunes

Tiempo Temperatura Precipitaciones Viento Presión Humedad
00:00 +21°C° 0 mm 3 mps 748 mmHg 88%
01:00 +21°C° 0 mm 3 mps 748 mmHg 90%
02:00 +20°C° 0 mm 3 mps 748 mmHg 91%
03:00 +20°C° 0 mm 3 mps 748 mmHg 91%
04:00 +20°C° 0 mm 3 mps 748 mmHg 91%
05:00 +20°C° 0 mm 3 mps 748 mmHg 91%
06:00 +22°C° 0 mm 3 mps 748 mmHg 87%
07:00 +24°C° 0 mm 3 mps 748 mmHg 82%
08:00 +26°C° 0 mm 3 mps 748 mmHg 78%
09:00 +27°C° 0 mm 3 mps 748 mmHg 72%
10:00 +29°C° 0 mm 3 mps 748 mmHg 67%
11:00 +30°C° 0 mm 3 mps 748 mmHg 61%
12:00 +30°C° 0.1 mm 2 mps 748 mmHg 58%
13:00 +31°C° 0.1 mm 2 mps 747 mmHg 55%
14:00 +32°C° 0.1 mm 1 mps 747 mmHg 51%
15:00 +32°C° 0 mm 1 mps 747 mmHg 53%
16:00 +32°C° 0 mm 1 mps 747 mmHg 54%
17:00 +32°C° 0 mm 1 mps 746 mmHg 56%
18:00 +30°C° 0 mm 1 mps 746 mmHg 60%
19:00 +28°C° 0 mm 1 mps 746 mmHg 65%
20:00 +26°C° 0 mm 2 mps 746 mmHg 69%
21:00 +25°C° 0 mm 2 mps 746 mmHg 70%
22:00 +24°C° 0 mm 2 mps 746 mmHg 71%
23:00 +23°C° 0 mm 2 mps 746 mmHg 72%

7 Julio, Martes

Tiempo Temperatura Precipitaciones Viento Presión Humedad
00:00 +23°C° 0 mm 2 mps 746 mmHg 71%
01:00 +23°C° 0 mm 2 mps 746 mmHg 71%
02:00 +21°C° 0 mm 2 mps 745 mmHg 70%
03:00 +21°C° 0 mm 2 mps 745 mmHg 73%
04:00 +21°C° 0 mm 2 mps 745 mmHg 75%
05:00 +21°C° 0 mm 2 mps 745 mmHg 78%
06:00 +24°C° 0 mm 2 mps 745 mmHg 75%
07:00 +26°C° 0 mm 2 mps 745 mmHg 71%
08:00 +28°C° 0 mm 2 mps 745 mmHg 68%
09:00 +29°C° 0 mm 2 mps 745 mmHg 63%
10:00 +30°C° 0 mm 2 mps 745 mmHg 58%
11:00 +32°C° 0 mm 2 mps 744 mmHg 52%
12:00 +32°C° 0 mm 2 mps 744 mmHg 50%
13:00 +34°C° 0 mm 2 mps 744 mmHg 48%
14:00 +34°C° 0 mm 2 mps 744 mmHg 46%
15:00 +34°C° 0.1 mm 2 mps 744 mmHg 52%
16:00 +33°C° 0.1 mm 3 mps 744 mmHg 58%
17:00 +31°C° 0.1 mm 3 mps 744 mmHg 64%
18:00 +30°C° 0.2 mm 3 mps 744 mmHg 70%
19:00 +28°C° 0.2 mm 3 mps 744 mmHg 76%
20:00 +26°C° 0.2 mm 4 mps 744 mmHg 82%
21:00 +25°C° 0 mm 4 mps 745 mmHg 84%
22:00 +23°C° 0 mm 4 mps 745 mmHg 87%
23:00 +22°C° 0 mm 4 mps 745 mmHg 89%

8 Julio, Miércoles

Tiempo Temperatura Precipitaciones Viento Presión Humedad
00:00 +22°C° 0.1 mm 4 mps 745 mmHg 91%
01:00 +21°C° 0.1 mm 4 mps 745 mmHg 94%
02:00 +20°C° 0.1 mm 4 mps 745 mmHg 96%
03:00 +20°C° 0.1 mm 5 mps 746 mmHg 95%
04:00 +20°C° 0.1 mm 5 mps 746 mmHg 94%
05:00 +19°C° 0.1 mm 5 mps 746 mmHg 93%
06:00 +20°C° 0 mm 5 mps 746 mmHg 90%
07:00 +20°C° 0 mm 6 mps 747 mmHg 86%
08:00 +21°C° 0 mm 6 mps 747 mmHg 83%
09:00 +22°C° 0 mm 6 mps 747 mmHg 77%
10:00 +23°C° 0 mm 6 mps 748 mmHg 72%
11:00 +24°C° 0 mm 6 mps 748 mmHg 66%
12:00 +26°C° 0 mm 6 mps 748 mmHg 65%
13:00 +26°C° 0 mm 6 mps 748 mmHg 63%
14:00 +26°C° 0 mm 6 mps 748 mmHg 61%
15:00 +26°C° 0 mm 6 mps 748 mmHg 64%
16:00 +24°C° 0 mm 6 mps 748 mmHg 67%
17:00 +23°C° 0 mm 6 mps 749 mmHg 70%
18:00 +22°C° 0 mm 6 mps 749 mmHg 72%
19:00 +21°C° 0 mm 5 mps 749 mmHg 74%
20:00 +19°C° 0 mm 5 mps 749 mmHg 76%
21:00 +19°C° 0 mm 5 mps 750 mmHg 74%
22:00 +17°C° 0 mm 5 mps 750 mmHg 72%
23:00 +17°C° 0 mm 5 mps 750 mmHg 70%
Mostrar más